Date String (YYYY-MM-DD hh:mm:ss) UTC,Instrument flags,Ambient pressure (hPa),Sample flow (lpm),Bypass flow (lpm),Sample temperature (°C),Ambient temperature (°C),ASC tube jacket temperature (°C),LED temperature (°C),Box temperature (°C),Sample RH (%),Span deviation,Mass concentration (μg/m³),Mass concentration (μg/m³),Mass concentration (μg/m³)
DateTimeUTC,F1_M11,P_M11,Q1_M11,Q2_M11,T1_M11,T2_M11,T3_M11,T4_M11,T5_M11,U1_M11,ZSPAN_M11,X0_M11,X2_M11,X1_M11
2022-02-05 14:00:00,,0826.0,4.99,0.00,21.4,21.2,00.0,30.6,23.0,06.5,0000.0,0001.54,0000.63,0000.39
2022-02-05 14:01:00,,0826.1,5.00,0.00,21.4,21.0,00.0,30.5,22.9,06.5,0000.0,0001.06,0000.60,0000.38
2022-02-05 14:02:00,,0826.1,5.01,0.00,21.4,20.9,00.0,30.5,22.8,06.1,0000.0,0001.09,0000.61,0000.38
2022-02-05 14:03:00,,0826.1,5.01,0.00,21.3,20.7,00.0,30.5,22.8,06.4,0000.0,0001.09,0000.61,0000.38
2022-02-05 14:04:00,,0826.1,4.99,0.00,21.3,20.7,00.0,30.5,22.8,06.1,0000.0,0001.13,0000.61,0000.38
2022-02-05 14:05:00,,0826.1,4.99,0.00,21.3,20.6,00.0,30.5,22.8,06.3,0000.0,0001.99,0000.58,0000.37
2022-02-05 14:06:00,,0826.1,5.01,0.00,21.3,20.6,00.0,30.4,22.8,06.1,0000.0,0001.98,0000.56,0000.37
2022-02-05 14:07:00,,0826.1,5.00,0.00,21.2,20.7,00.0,30.4,22.8,06.3,0000.0,0001.96,0000.55,0000.36
2022-02-05 14:08:00,,0826.1,4.98,0.00,21.4,21.5,00.0,30.5,23.1,06.7,0000.0,0001.85,0000.52,0000.35
2022-02-05 14:09:00,,0826.1,5.01,0.00,21.5,22.5,00.0,30.5,23.4,06.2,0000.0,0001.74,0000.51,0000.34
2022-02-05 14:10:00,,0826.2,4.99,0.00,21.7,22.9,00.0,30.5,23.7,06.3,0000.0,0002.45,0000.52,0000.34
2022-02-05 14:11:00,,0826.2,5.00,0.00,21.7,22.5,00.0,30.6,23.6,05.7,0000.0,0002.49,0000.52,0000.34
2022-02-05 14:12:00,,0826.2,5.00,0.00,21.7,22.2,00.0,30.6,23.5,05.7,0000.0,0002.61,0000.54,0000.33
2022-02-05 14:13:00,,0826.2,5.00,0.00,21.7,21.9,00.0,30.6,23.5,06.2,0000.0,0002.64,0000.56,0000.32
2022-02-05 14:14:00,,0826.1,4.99,0.00,21.7,21.7,00.0,30.6,23.4,06.2,0000.0,0002.78,0000.59,0000.32
2022-02-05 14:15:00,,0826.1,5.01,0.00,21.7,21.5,00.0,30.6,23.3,06.1,0000.0,0002.65,0000.58,0000.32
2022-02-05 14:16:00,,0826.0,5.00,0.00,21.7,21.4,00.0,30.6,23.3,06.6,0000.0,0001.79,0000.58,0000.33
2022-02-05 14:17:00,,0826.0,4.99,0.00,21.6,21.2,00.0,30.6,23.3,06.6,0000.0,0001.80,0000.59,0000.34
2022-02-05 14:18:00,,0825.8,5.00,0.00,21.6,21.1,00.0,30.6,23.2,06.6,0000.0,0001.81,0000.58,0000.34
2022-02-05 14:19:00,,0825.8,4.99,0.00,21.6,21.0,00.0,30.6,23.1,06.5,0000.0,0001.81,0000.59,0000.35
2022-02-05 14:20:00,,0825.9,5.00,0.00,21.5,20.9,00.0,30.6,23.1,06.2,0000.0,0001.78,0000.58,0000.35
2022-02-05 14:21:00,,0825.9,5.00,0.00,21.5,20.8,00.0,30.6,23.1,06.3,0000.0,0001.06,0000.57,0000.35
2022-02-05 14:22:00,,0826.0,4.99,0.00,21.5,20.6,00.0,30.6,23.0,06.1,0000.0,0001.11,0000.57,0000.35
2022-02-05 14:23:00,,0825.9,5.02,0.00,21.4,20.6,00.0,30.5,22.9,06.5,0000.0,0001.32,0000.56,0000.36
2022-02-05 14:24:00,,0826.0,4.99,0.00,21.4,20.7,00.0,30.5,23.0,05.9,0000.0,0001.45,0000.57,0000.37
2022-02-05 14:25:00,,0826.1,5.00,0.00,21.5,21.5,00.0,30.5,23.2,06.2,0000.0,0001.43,0000.53,0000.37
2022-02-05 14:26:00,,0826.1,4.99,0.00,21.6,22.5,00.0,30.6,23.5,06.3,0000.0,0001.53,0000.53,0000.37
2022-02-05 14:27:00,,0826.1,4.99,0.00,21.8,22.9,00.0,30.6,23.8,05.7,0000.0,0001.49,0000.51,0000.37
2022-02-05 14:28:00,,0826.2,5.01,0.00,21.9,22.6,00.0,30.7,23.7,06.1,0000.0,0001.47,0000.50,0000.36
2022-02-05 14:29:00,,0826.3,5.00,0.00,21.8,22.2,00.0,30.7,23.6,06.3,0000.0,0001.42,0000.49,0000.36
2022-02-05 14:30:00,,0826.4,5.00,0.00,21.8,21.9,00.0,30.7,23.5,06.4,0000.0,0001.41,0000.48,0000.36
2022-02-05 14:31:00,,0826.4,4.99,0.00,21.8,21.7,00.0,30.7,23.4,06.5,0000.0,0001.39,0000.47,0000.36
2022-02-05 14:32:00,,0826.4,5.01,0.00,21.7,21.5,00.0,30.7,23.4,06.8,0000.0,0001.41,0000.48,0000.37
2022-02-05 14:33:00,,0826.4,4.99,0.00,21.7,21.4,00.0,30.7,23.4,06.6,0000.0,0001.80,0000.50,0000.37
2022-02-05 14:34:00,,0826.5,5.00,0.00,21.7,21.3,00.0,30.7,23.4,06.2,0000.0,0002.95,0000.53,0000.38
2022-02-05 14:35:00,,0826.5,4.99,0.00,21.7,21.3,00.0,30.7,23.4,06.2,0000.0,0002.94,0000.50,0000.37
2022-02-05 14:36:00,,0826.5,5.01,0.00,21.7,21.2,00.0,30.7,23.3,06.3,0000.0,0002.88,0000.52,0000.37
2022-02-05 14:37:00,,0826.5,5.02,0.00,21.7,21.1,00.0,30.7,23.3,06.1,0000.0,0002.78,0000.53,0000.37
2022-02-05 14:38:00,,0826.5,5.00,0.00,21.6,21.0,00.0,30.7,23.3,06.1,0000.0,0002.84,0000.55,0000.37
2022-02-05 14:39:00,,0826.5,4.99,0.00,21.6,21.0,00.0,30.7,23.3,06.1,0000.0,0002.90,0000.57,0000.38
2022-02-05 14:40:00,,0826.5,4.99,0.00,21.6,21.0,00.0,30.7,23.3,06.1,0000.0,0002.91,0000.58,0000.38
2022-02-05 14:41:00,,0826.5,5.00,0.00,21.6,21.0,00.0,30.7,23.3,06.1,0000.0,0002.91,0000.58,0000.38
2022-02-05 14:42:00,,0826.5,5.01,0.00,21.6,21.0,00.0,30.7,23.3,06.1,0000.0,0002.95,0000.60,0000.38
2022-02-05 14:43:00,,0826.5,4.99,0.00,21.6,21.0,00.0,30.6,23.3,05.7,0000.0,0003.00,0000.62,0000.38
2022-02-05 14:44:00,,0826.5,4.99,0.00,21.6,21.0,00.0,30.6,23.2,05.7,0000.0,0002.68,0000.61,0000.38
2022-02-05 14:45:00,,0826.4,5.00,0.00,21.6,21.0,00.0,30.6,23.2,06.0,0000.0,0001.29,0000.60,0000.38
2022-02-05 14:46:00,,0826.5,5.00,0.00,21.6,21.0,00.0,30.6,23.2,06.1,0000.0,0000.95,0000.59,0000.38
2022-02-05 14:47:00,,0826.5,4.99,0.00,21.6,21.0,00.0,30.6,23.2,06.4,0000.0,0000.88,0000.56,0000.37
2022-02-05 14:48:00,,0826.5,5.00,0.00,21.6,21.1,00.0,30.6,23.2,06.5,0000.0,0000.88,0000.57,0000.38
2022-02-05 14:49:00,,0826.5,4.99,0.00,21.7,21.8,00.0,30.6,23.4,06.6,0000.0,0000.85,0000.57,0000.39
2022-02-05 14:50:00,,0826.5,5.02,0.00,21.8,22.7,00.0,30.7,23.8,06.5,0000.0,0000.80,0000.55,0000.39
2022-02-05 14:51:00,,0826.5,4.99,0.00,21.9,22.8,00.0,30.7,23.9,06.6,0000.0,0000.82,0000.55,0000.39
2022-02-05 14:52:00,,0826.5,5.01,0.00,22.0,22.5,00.0,30.8,23.9,06.5,0000.0,0001.22,0000.57,0000.40
2022-02-05 14:53:00,,0826.7,5.01,0.00,22.0,22.3,00.0,30.8,23.9,05.6,0000.0,0002.12,0000.57,0000.40
2022-02-05 14:54:00,,0826.6,5.00,0.00,22.0,22.1,00.0,30.8,23.8,05.6,0000.0,0002.05,0000.54,0000.39
2022-02-05 14:55:00,,0826.7,5.00,0.00,22.0,22.0,00.0,30.8,23.8,05.5,0000.0,0002.08,0000.55,0000.40
2022-02-05 14:56:00,,0826.7,4.98,0.00,22.0,21.9,00.0,30.8,23.8,05.9,0000.0,0002.05,0000.53,0000.40
2022-02-05 14:57:00,,0826.7,5.01,0.00,22.0,21.8,00.0,30.9,23.8,05.8,0000.0,0002.16,0000.54,0000.41
2022-02-05 14:58:00,,0826.7,5.01,0.00,22.0,21.7,00.0,30.9,23.7,05.8,0000.0,0002.37,0000.57,0000.41
2022-02-05 14:59:00,,0826.7,4.99,0.00,22.0,21.6,00.0,30.9,23.7,05.9,0000.0,0002.33,0000.54,0000.40
